• Join FlightAware (Why Join?)
  • Login
  • US Flag 
08:53AM EDT


 

Airport Tracker/Info


-or-


 

Live Flight TrackerFlight Track Log ✈ EJA929 ✈ 04-Sep-2013 ✈ KBFI - KTEX

Flight Track Log - Related Links

Times and Time Zones

All times are in EDT time to prevent confusion due to time zone crossing. See the EJA929 flight status page for this flight to view local times or setup timezone preferences in your user account.

Time Position Orientation Groundspeed Altitude Reporting Facility
EDT Latitude Longitude Course Direction KTS MPH feet Rate Location/Type
11:48AM 47.4972 -122.2742 127° Southeast 193 222 1,800  Level Seattle Center
11:49AM 47.4439 -122.2272 149° Southeast 218 251 5,100 2,940 Climbing Seattle Center
11:50AM 47.3750 -122.2092 170° South 255 293 7,800 2,880 Climbing Seattle Center
11:52AM 47.3036 -122.1867 168° South 260 299 11,000 2,520 Climbing Seattle Center
11:53AM 47.2261 -122.1664 170° South 283 326 13,000 1,980 Climbing Seattle Center
11:54AM 47.0746 -121.4236 127° Southeast  Level Estimated
11:54AM 47.1308 -122.1364 168° South 324 373 15,100  Level Seattle Center
11:55AM 47.0389 -122.1100 169° South 338 389 16,700 1,320 Climbing Seattle Center
11:56AM 46.9397 -122.0825 169° South 363 418 17,800 1,080 Climbing Seattle Center
11:57AM 46.8372 -122.0531 169° South 375 432 19,000 1,080 Climbing Seattle Center
11:58AM 46.7436 -121.9800 152° Southeast 395 455 20,100 1,200 Climbing Seattle Center
11:59AM 46.6775 -121.8447 125° Southeast 412 474 21,500 1,440 Climbing Seattle Center
12:00PM 46.6114 -121.7122 126° Southeast 411 473 23,100 1,620 Climbing Seattle Center
12:01PM 46.5358 -121.5628 126° Southeast 413 475 24,800 1,620 Climbing Seattle Center
12:02PM 46.4678 -121.4283 126° Southeast 415 478 26,400 1,560 Climbing Seattle Center
12:03PM 46.3989 -121.2925 126° Southeast 417 480 28,000 1,620 Climbing Seattle Center
12:04PM 46.3297 -121.1569 126° Southeast 420 483 29,700 1,500 Climbing Seattle Center
12:05PM 46.2589 -121.0181 126° Southeast 428 493 31,100 1,620 Climbing Seattle Center
12:06PM 46.1856 -120.8764 127° Southeast 437 503 33,100 1,920 Climbing Seattle Center
12:07PM 46.1139 -120.7372 127° Southeast 436 502 35,100 2,160 Climbing Seattle Center
12:08PM 46.0422 -120.5994 127° Southeast 431 496 37,600 1,860 Climbing Seattle Center
12:09PM 45.9714 -120.4642 127° Southeast 425 489 38,900 1,020 Climbing Seattle Center
12:10PM 45.8964 -120.3228 127° Southeast 440 506 39,700 960 Climbing Seattle Center
12:11PM 45.8219 -120.1819 127° Southeast 443 510 40,900 600 Climbing Seattle Center
12:12PM 45.7294 -120.0072 127° Southeast 456 525 41,000  Climbing Seattle Center
12:13PM 45.6489 -119.8581 128° Southeast 466 536 41,000  Level Seattle Center
12:14PM 45.5717 -119.7089 126° Southeast 468 539 41,000  Level Seattle Center
12:15PM 45.4958 -119.5639 127° Southeast 459 528 41,000  Level Seattle Center
12:16PM 45.4192 -119.4192 127° Southeast 456 525 41,000  Level Seattle Center
12:17PM 45.3428 -119.2761 127° Southeast 454 522 41,000  Level Seattle Center
12:18PM 45.2689 -119.1372 127° Southeast 444 511 41,000  Level Seattle Center
12:19PM 45.1942 -118.9981 127° Southeast 442 509 41,000  Level Seattle Center
12:20PM 45.1203 -118.8619 128° Southeast 439 505 41,000  Level Seattle Center
12:21PM 45.0464 -118.7244 127° Southeast 438 504 41,000  Level Seattle Center
12:22PM 44.9714 -118.5878 128° Southeast 439 505 41,000  Level Seattle Center
12:23PM 44.8975 -118.4506 127° Southeast 440 506 41,000  Level Seattle Center
12:24PM 44.8200 -118.3092 128° Southeast 451 519 41,000  Level Seattle Center
12:25PM 44.7414 -118.1658 128° Southeast 461 531 41,000  Level Seattle Center
12:26PM 44.6600 -118.0225 129° Southeast 466 536 41,000  Level Salt Lake Center
12:27PM 44.5789 -117.8775 128° Southeast 471 542 41,000  Level Salt Lake Center
12:28PM 44.4972 -117.7314 128° Southeast 474 545 41,000  Level Salt Lake Center
12:29PM 44.4111 -117.5822 129° Southeast 490 564 41,000  Level Salt Lake Center
12:30PM 44.3211 -117.4228 128° Southeast 473 544 41,000  Level Salt Lake Center
12:31PM 44.2353 -117.2719 128° Southeast 476 548 41,000  Level Salt Lake Center
12:32PM 44.1492 -117.1231 129° Southeast 473 544 41,000  Level Salt Lake Center
12:33PM 44.0647 -116.9725 128° Southeast 470 541 41,000  Level Salt Lake Center
12:34PM 43.9794 -116.8231 128° Southeast 472 543 41,000  Level Salt Lake Center
12:35PM 43.8994 -116.6878 129° Southeast 470 541 41,000  Level Salt Lake Center
12:36PM 43.8131 -116.5400 129° Southeast 471 542 41,000  Level Salt Lake Center
12:37PM 43.7275 -116.3928 129° Southeast 471 542 41,000  Level Salt Lake Center
12:38PM 43.6411 -116.2442 129° Southeast 476 548 41,000  Level Salt Lake Center
12:39PM 43.5536 -116.0964 129° Southeast 477 549 41,000  Level Salt Lake Center
12:40PM 43.4717 -115.9581 129° Southeast 479 551 41,000  Level Salt Lake Center
12:41PM 43.3836 -115.8097 129° Southeast 481 554 41,000  Level Salt Lake Center
12:42PM 43.2939 -115.6603 129° Southeast 482 555 41,000  Level Salt Lake Center
12:44PM 43.2047 -115.5128 130° Southeast 480 552 41,000  Level Salt Lake Center
12:45PM 43.1161 -115.3658 130° Southeast 477 549 41,000  Level Salt Lake Center
12:46PM 43.0286 -115.2242 130° Southeast 468 539 41,000  Level Salt Lake Center
12:47PM 42.9489 -115.0942 130° Southeast 465 535 41,000  Level Salt Lake Center
12:48PM 42.8619 -114.9533 130° Southeast 463 533 41,000  Level Salt Lake Center
12:49PM 42.7750 -114.8125 130° Southeast 465 535 41,000  Level Salt Lake Center
12:50PM 42.6875 -114.6725 130° Southeast 464 534 41,000  Level Salt Lake Center
12:51PM 42.6069 -114.5436 130° Southeast 471 542 41,000  Level Salt Lake Center
12:52PM 42.5228 -114.4086 130° Southeast 470 541 41,000  Level Salt Lake Center
12:53PM 42.4375 -114.2733 130° Southeast 471 542 41,000  Level Salt Lake Center
12:54PM 42.3350 -114.1100 130° Southeast 476 548 41,000  Level Salt Lake Center
12:55PM 42.2481 -113.9756 131° Southeast 476 548 41,000  Level Salt Lake Center
12:56PM 42.1619 -113.8417 131° Southeast 474 545 41,000  Level Salt Lake Center
12:57PM 42.0758 -113.7069 131° Southeast 475 547 41,000  Level Salt Lake Center
12:58PM 41.9903 -113.5739 131° Southeast 473 544 41,000  Level Salt Lake Center
12:59PM 41.9036 -113.4408 131° Southeast 473 544 41,000  Level Salt Lake Center
01:00PM 41.7994 -113.2819 131° Southeast 473 544 41,000  Level Salt Lake Center
01:01PM 41.7131 -113.1483 131° Southeast 476 548 41,000  Level Salt Lake Center
01:02PM 41.6258 -113.0164 131° Southeast 475 547 41,000  Level Salt Lake Center
01:03PM 41.5378 -112.8856 132° Southeast 476 548 41,000  Level Salt Lake Center
01:04PM 41.4492 -112.7531 132° Southeast 478 550 41,000  Level Salt Lake Center
01:05PM 41.3617 -112.6217 132° Southeast 478 550 41,000  Level Salt Lake Center
01:06PM 41.2572 -112.4647 131° Southeast 473 544 41,000  Level Salt Lake Center
01:07PM 41.1694 -112.3342 132° Southeast 476 548 41,000  Level Salt Lake Center
01:08PM 41.0822 -112.2044 132° Southeast 475 547 41,000  Level Salt Lake Center
01:09PM 40.9953 -112.0769 132° Southeast 473 544 41,000  Level Salt Lake Center
01:10PM 40.9092 -111.9483 132° Southeast 478 550 41,000  Level Salt Lake Center
01:11PM 40.8011 -111.7944 133° Southeast 500 575 41,000  Level Salt Lake Center
01:12PM 40.7139 -111.6658 132° Southeast 477 549 41,000  Level Salt Lake Center
01:13PM 40.6253 -111.5356 132° Southeast 479 551 41,000  Level Salt Lake Center
01:14PM 40.5361 -111.4072 132° Southeast 477 549 41,000  Level Salt Lake Center
01:16PM 40.4464 -111.2792 133° Southeast 477 549 41,000  Level Salt Lake Center
01:17PM 40.3378 -111.1281 133° Southeast 476 548 41,000  Level Salt Lake Center
01:18PM 40.2483 -110.9989 132° Southeast 479 551 41,000  Level Salt Lake Center
01:19PM 40.1644 -110.8808 133° Southeast 482 555 41,000  Level Salt Lake Center
01:20PM 40.0631 -110.7383 133° Southeast 480 552 41,000  Level Salt Lake Center
01:21PM 39.9758 -110.6175 133° Southeast 478 550 41,000  Level Salt Lake Center
01:22PM 39.8747 -110.4744 133° Southeast 481 554 41,000  Level Salt Lake Center
01:23PM 39.7861 -110.3525 133° Southeast 484 557 41,000  Level Salt Lake Center
01:24PM 39.6836 -110.2108 133° Southeast 483 556 41,000  Level Salt Lake Center
01:25PM 39.5942 -110.0878 133° Southeast 489 563 41,000  Level Salt Lake Center
01:26PM 39.4903 -109.9450 133° Southeast 489 563 41,000 -120 Level Salt Lake Center
01:27PM 39.4014 -109.8239 134° Southeast 487 560 40,800 -1,020 Descending Salt Lake Center
01:28PM 39.2956 -109.6822 134° Southeast 491 565 38,900 -1,740 Descending Salt Lake Center
01:29PM 39.1889 -109.5806 144° Southeast 498 573 37,300 -1,800 Descending Salt Lake Center
01:30PM 39.0622 -109.4583 143° Southeast 507 583 35,200 -1,860 Descending Salt Lake Center
01:31PM 38.9706 -109.3336 133° Southeast 503 579 33,500 -1,800 Descending Salt Lake Center
01:32PM 38.8653 -109.1817 132° Southeast 511 588 31,500 -1,920 Descending Salt Lake Center
01:33PM 38.7731 -109.0511 132° Southeast 516 594 29,600 -2,160 Descending Salt Lake Center
01:34PM 38.6658 -108.8986 132° Southeast 518 596 27,100 -2,280 Descending Salt Lake Center
01:35PM 38.5767 -108.7722 132° Southeast 511 588 25,000 -2,040 Descending Salt Lake Center
01:37PM 38.4531 -108.5972 132° Southeast 408 470 22,100 -1,860 Descending Denver Center
01:38PM 38.3908 -108.5100 132° Southeast 345 397 20,400 -1,560 Descending Denver Center
01:39PM 38.3350 -108.4325 133° Southeast 314 361 18,600 -1,680 Descending Denver Center
01:40PM 38.2644 -108.3386 134° Southeast 300 345 16,600 -1,680 Descending Denver Center
01:41PM 38.2006 -108.2747 142° Southeast 291 335 14,800 -1,380 Descending Denver Center
01:42PM 38.1269 -108.1994 141° Southeast 282 325 13,200 -660 Descending Denver Center
01:43PM 38.0508 -108.1225 141° Southeast 248 285 13,400 180 Climbing Denver Center
01:45PM 37.9838 -107.9747 134° Southeast  Level Estimated
01:52PM 37.9538 -107.9088 134° Southeast  Level Estimated
01:53PM 37.9538 -107.9088 134° Southeast  Level Estimated
01:54PM 37.9538 -107.9088 134° Southeast  Level Estimated
01:55PM 37.9538 -107.9088 134° Southeast  Level Estimated
01:56PM 37.9538 -107.9088 134° Southeast  Level Estimated
01:57PM 37.9538 -107.9088 134° Southeast  Level Estimated
01:58PM 37.9538 -107.9088 134° Southeast  Level Estimated
01:59PM 37.9538 -107.9088 134° Southeast  Level Estimated
02:00PM 37.9538 -107.9088 134° Southeast  Level Estimated